Change the Weather History Date:

Monday, February 4, 2013

  Actual Average (KGDV) Record (KGDV)
Temperature  
Mean Temperature 30 °F -  
Max Temperature 37 °F 29 °F 50 °F (2005)
Min Temperature 23 °F 11 °F -14 °F (2015)
Degree Days  
Heating Degree Days 35    
Moisture  
Dew Point 27 °F    
Average Humidity 84    
Maximum Humidity 100    
Minimum Humidity 70    
Precipitation  
Precipitation 0.00 in - - ()
Sea Level Pressure  
Sea Level Pressure 29.74 in    
Wind  
Wind Speed 12 mph (West)    
Max Wind Speed 22 mph    
Max Gust Speed 29 mph    
Visibility 9 miles    
Events      
Averages and records for this station are not official NWS values.
T = Trace of Precipitation, MM = Missing Value Source: NWS Daily Summary

Daily Weather History Graph

Daily Weather History Graph

Search for Another Location

Airport or City:

Trip Planner

Search our weather history database for the weather conditions in past years. The results will help you decide how hot, cold, wet, or windy it might be!

Date:

Astronomy

Feb. 04, 2013 Rise Set
Actual Time 7:16 AM MST 5:04 PM MST
Civil Twilight 6:44 AM MST 5:36 PM MST
Nautical Twilight 6:07 AM MST 6:12 PM MST
Astronomical Twilight 5:32 AM MST 6:48 PM MST
Moon 1:59 AM MST (2/4) 11:23 AM MST (2/4)
Length of Visible Light 10h 52m
Length of Day
9h 47m
Last Quarter, 36% of the Moon is Illuminated
Feb 4
Last Quarter
Feb 10
New
Feb 17
First Quarter
Feb 25
Full
Mar 4
Last Quarter

Hourly Weather History & Observations

Time (MST) Temp. Windchill Dew Point Humidity Pressure Visibility Wind Dir Wind Speed Gust Speed Precip Events Conditions
12:15 AM 24.8 °F 16.9 °F 23.0 °F 93% 29.89 in 10.0 mi NW 6.9 mph - N/A   Overcast
12:35 AM 24.8 °F 14.0 °F 23.0 °F 93% 29.89 in 10.0 mi NW 11.5 mph - N/A   Overcast
12:55 AM 24.8 °F 14.0 °F 23.0 °F 93% 29.89 in 10.0 mi NW 11.5 mph - N/A   Overcast
1:15 AM 24.8 °F 14.0 °F 23.0 °F 93% 29.88 in 10.0 mi NW 11.5 mph - N/A   Overcast
1:35 AM 24.8 °F 14.6 °F 23.0 °F 93% 29.87 in 10.0 mi NW 10.4 mph - N/A   Overcast
1:55 AM 24.8 °F 20.5 °F 23.0 °F 93% 29.87 in 10.0 mi WNW 3.5 mph - N/A   Overcast
2:15 AM 24.8 °F 15.3 °F 24.8 °F 100% 29.87 in 10.0 mi NW 9.2 mph - N/A   Overcast
3:55 AM 24.8 °F 19.1 °F 24.8 °F 100% 29.84 in 1.8 mi SSW 4.6 mph - N/A   Overcast
4:15 AM 24.8 °F 16.9 °F 24.8 °F 100% 29.84 in 1.0 mi SSW 6.9 mph - N/A   Overcast
4:35 AM 24.8 °F 16.1 °F 24.8 °F 100% 29.83 in 1.5 mi South 8.1 mph - N/A   Overcast
4:55 AM 24.8 °F 16.1 °F 24.8 °F 100% 29.82 in 1.0 mi South 8.1 mph - N/A   Overcast
5:15 AM 24.8 °F 14.6 °F 24.8 °F 100% 29.82 in 0.8 mi South 10.4 mph - N/A   Overcast
5:35 AM 23.0 °F 12.4 °F 23.0 °F 100% 29.81 in 1.0 mi South 10.4 mph - N/A   Overcast
5:55 AM 23.0 °F 13.1 °F 23.0 °F 100% 29.79 in 6.0 mi South 9.2 mph - N/A   Overcast
6:15 AM 23.0 °F 11.7 °F 23.0 °F 100% 29.78 in 10.0 mi South 11.5 mph - N/A   Overcast
6:35 AM 23.0 °F 11.7 °F 23.0 °F 100% 29.78 in 10.0 mi South 11.5 mph - N/A   Overcast
6:55 AM 23.0 °F 12.4 °F 23.0 °F 100% 29.77 in 10.0 mi South 10.4 mph - N/A   Mostly Cloudy
7:15 AM 23.0 °F 14.7 °F 23.0 °F 100% 29.77 in 9.0 mi South 6.9 mph - N/A   Overcast
7:35 AM 24.8 °F 15.3 °F 24.8 °F 100% 29.76 in 10.0 mi South 9.2 mph - N/A   Overcast
7:55 AM 24.8 °F 16.1 °F 24.8 °F 100% 29.76 in 10.0 mi South 8.1 mph - N/A   Overcast
8:15 AM 24.8 °F 16.9 °F 24.8 °F 100% 29.76 in 9.0 mi SSW 6.9 mph - N/A   Mostly Cloudy
8:35 AM 28.4 °F 19.7 °F 26.6 °F 93% 29.75 in 10.0 mi SW 9.2 mph - N/A   Scattered Clouds
8:55 AM 32.0 °F 23.0 °F 26.6 °F 80% 29.74 in 10.0 mi SW 11.5 mph 16.1 mph N/A   Mostly Cloudy
9:15 AM 32.0 °F 23.0 °F 26.6 °F 80% 29.73 in 10.0 mi SW 11.5 mph - N/A   Mostly Cloudy
9:35 AM 32.0 °F 22.5 °F 28.4 °F 87% 29.72 in 10.0 mi WSW 12.7 mph - N/A   Overcast
9:55 AM 32.0 °F 22.5 °F 28.4 °F 87% 29.72 in 10.0 mi WSW 12.7 mph - N/A   Overcast
10:15 AM 33.8 °F 24.3 °F 28.4 °F 81% 29.72 in 10.0 mi WSW 13.8 mph - N/A   Overcast
10:35 AM 33.8 °F 24.3 °F 30.2 °F 87% 29.72 in 10.0 mi WSW 13.8 mph - N/A   Overcast
10:55 AM 35.6 °F 25.9 °F 30.2 °F 81% 29.71 in 10.0 mi WSW 16.1 mph - N/A   Mostly Cloudy
11:15 AM 35.6 °F 25.9 °F 28.4 °F 75% 29.71 in 10.0 mi WSW 16.1 mph 20.7 mph N/A   Overcast
11:35 AM 35.6 °F 25.9 °F 28.4 °F 75% 29.70 in 10.0 mi West 16.1 mph - N/A   Overcast
11:55 AM 35.6 °F 25.2 °F 28.4 °F 75% 29.68 in 10.0 mi West 18.4 mph 23.0 mph N/A   Overcast
12:15 PM 35.6 °F 25.5 °F 28.4 °F 75% 29.67 in 10.0 mi West 17.3 mph - N/A   Scattered Clouds
12:35 PM 35.6 °F 24.8 °F 28.4 °F 75% 29.67 in 10.0 mi West 19.6 mph - N/A   Partly Cloudy
12:55 PM 35.6 °F 24.2 °F 28.4 °F 75% 29.66 in 10.0 mi West 21.9 mph - N/A   Clear
1:15 PM 35.6 °F 25.2 °F 28.4 °F 75% 29.66 in 10.0 mi West 18.4 mph - N/A   Clear
1:35 PM 37.4 °F 26.9 °F 28.4 °F 70% 29.66 in 10.0 mi West 20.7 mph 26.5 mph N/A   Clear
1:55 PM 37.4 °F 27.8 °F 28.4 °F 70% 29.67 in 10.0 mi West 17.3 mph - N/A   Scattered Clouds
2:15 PM 37.4 °F 27.5 °F 28.4 °F 70% 29.67 in 10.0 mi West 18.4 mph 23.0 mph N/A   Partly Cloudy
2:35 PM 37.4 °F 27.5 °F 28.4 °F 70% 29.67 in 10.0 mi West 18.4 mph - N/A   Clear
2:55 PM 37.4 °F 28.5 °F 28.4 °F 70% 29.67 in 10.0 mi West 15.0 mph - N/A   Clear
3:15 PM 37.4 °F 29.3 °F 28.4 °F 70% 29.67 in 10.0 mi West 12.7 mph - N/A   Scattered Clouds
3:35 PM 37.4 °F 28.9 °F 28.4 °F 70% 29.66 in 10.0 mi West 13.8 mph - N/A   Partly Cloudy
3:55 PM 37.4 °F 28.9 °F 28.4 °F 70% 29.67 in 10.0 mi West 13.8 mph - N/A   Clear
4:15 PM 37.4 °F 28.5 °F 28.4 °F 70% 29.67 in 10.0 mi West 15.0 mph - N/A   Clear
4:35 PM 35.6 °F 25.9 °F 28.4 °F 75% 29.67 in 10.0 mi West 16.1 mph 20.7 mph N/A   Scattered Clouds
4:55 PM 35.6 °F 26.6 °F 28.4 °F 75% 29.67 in 10.0 mi West 13.8 mph - N/A   Overcast
5:15 PM 35.6 °F 26.2 °F 28.4 °F 75% 29.67 in 10.0 mi West 15.0 mph - N/A   Overcast
5:35 PM 35.6 °F 26.2 °F 30.2 °F 81% 29.67 in 10.0 mi West 15.0 mph - N/A   Overcast
5:55 PM 35.6 °F 26.2 °F 30.2 °F 81% 29.67 in 10.0 mi West 15.0 mph - N/A   Overcast
6:15 PM 35.6 °F 25.9 °F 28.4 °F 75% 29.67 in 10.0 mi West 16.1 mph - N/A   Overcast
6:35 PM 35.6 °F 25.2 °F 28.4 °F 75% 29.67 in 10.0 mi West 18.4 mph 21.9 mph N/A   Overcast
6:55 PM 35.6 °F 25.5 °F 30.2 °F 81% 29.67 in 10.0 mi West 17.3 mph 24.2 mph N/A   Overcast
7:15 PM 37.4 °F 27.2 °F 28.4 °F 70% 29.68 in 10.0 mi West 19.6 mph 24.2 mph N/A   Overcast
7:35 PM 35.6 °F 24.2 °F 28.4 °F 75% 29.68 in 10.0 mi West 21.9 mph 26.5 mph N/A   Overcast
7:55 PM 37.4 °F 26.6 °F 28.4 °F 70% 29.69 in 10.0 mi West 21.9 mph 28.8 mph N/A   Overcast
8:15 PM 35.6 °F 24.5 °F 28.4 °F 75% 29.71 in 10.0 mi WNW 20.7 mph 25.3 mph N/A   Overcast
8:35 PM 35.6 °F 25.5 °F 28.4 °F 75% 29.72 in 10.0 mi WNW 17.3 mph 23.0 mph N/A   Overcast
8:55 PM 35.6 °F 25.5 °F 28.4 °F 75% 29.72 in 10.0 mi WNW 17.3 mph 23.0 mph N/A   Mostly Cloudy
9:15 PM 33.8 °F 24.3 °F 28.4 °F 81% 29.72 in 10.0 mi NW 13.8 mph - N/A   Mostly Cloudy
9:35 PM 32.0 °F 22.1 °F 28.4 °F 87% 29.74 in 10.0 mi NW 13.8 mph - N/A   Overcast
9:55 PM 32.0 °F 20.8 °F 28.4 °F 87% 29.74 in 10.0 mi NW 17.3 mph - N/A   Overcast
10:15 PM 32.0 °F 21.2 °F 28.4 °F 87% 29.76 in 10.0 mi WNW 16.1 mph - N/A   Overcast
10:35 PM 32.0 °F 20.8 °F 28.4 °F 87% 29.76 in 10.0 mi WNW 17.3 mph - N/A   Overcast
10:55 PM 32.0 °F 21.2 °F 28.4 °F 87% 29.75 in 10.0 mi West 16.1 mph - N/A   Overcast
11:15 PM 32.0 °F 20.1 °F 26.6 °F 80% 29.77 in 10.0 mi WNW 19.6 mph 25.3 mph N/A   Overcast
11:35 PM 32.0 °F 20.5 °F 26.6 °F 80% 29.79 in 10.0 mi WNW 18.4 mph 24.2 mph N/A   Overcast
11:55 PM 32.0 °F 19.8 °F 26.6 °F 80% 29.78 in 10.0 mi WNW 20.7 mph 25.3 mph N/A   Overcast